Location: Julian California
(33.0790°N, 116.6010°W)
Time: 11:52:20
(UTC-07:00)

Daily predictions for brighter satellites

Satellite Brightness Start Highest point End
(mag) Time Altitude Azimuth Time Altitude Azimuth Time Altitude Azimuth
Cosmos 2263 Rocket 3.7 19:40:55 10° NNE 19:44:57 20° ENE 19:48:58 10° ESE
Cosmos 1655 Rocket 4.1 19:39:22 10° S 19:45:29 59° E 19:51:41 10° NNE
Cosmos 1954 Rocket 4.3 19:40:40 10° N 19:45:51 50° ENE 19:50:59 10° SE
OAO 1 Rocket 4.5 19:40:40 10° WSW 19:46:00 87° SSE 19:51:22 10° ENE
Cosmos 2322 Rocket 2.3 19:40:59 10° S 19:46:33 60° ESE 19:52:10 10° NNE
Meteosat 1 Rocket2 4.0 19:45:01 10° SW 19:49:02 39° SSE 19:54:37 10° E
Cosmos 44 3.1 19:45:31 10° NNW 19:49:58 70° ENE 19:54:38 10° SE
Intercosmos 25 Rocket 3.8 19:47:05 10° NNW 19:50:09 53° W 19:53:40 10° S
ATLAS 3B R/B 4.5 19:47:13 10° NNE 19:50:16 13° NE 19:53:16 10° ENE
CZ-3A R/B 3.1 19:44:45 10° W 19:51:11 22° SSW 19:53:42 10° SSE
CZ-4C R/B 4.2 19:46:14 10° NW 19:53:16 43° WSW 20:00:46 10° S
USA 186 3.3 19:51:05 10° ESE 19:53:38 20° ENE 19:56:12 10° NNE
Cosmos 1441 Rocket 3.7 19:50:06 10° NNW 19:53:47 61° W 19:57:28 10° S
DELTA 2 R/B (1) 3.6 19:50:31 10° WNW 19:56:08 86° SSW 20:01:44 10° ESE
BREEZE M DEB (TANK) 4.4 19:40:06 10° SSW 19:57:12 48° SE 20:01:40 10° ENE
SWAS 4.5 19:52:59 10° NNW 19:57:16 87° WSW 20:01:32 10° SSE
SJ-6B 2.9 19:54:30 10° SSE 19:58:32 89° SW 20:02:40 10° NNW
Meteor 1-11 Rocket 4.0 19:53:31 10° SSE 19:59:06 49° E 20:04:36 10° NNE
SL-16 R/B 2.2 19:53:52 10° SSW 19:59:30 80° ESE 20:05:11 10° NNE
USA 267 3.5 19:55:40 10° ESE 20:02:05 60° NE 20:08:30 10° NW
Envisat 3.9 19:57:53 10° SE 20:02:14 29° ENE 20:06:35 10° N
NOSS 2-3 (D) 3.7 19:57:43 10° SSW 20:02:15 86° ESE 20:07:20 10° NNE
Meteor 2-11 Rocket 4.4 20:00:00 10° N 20:06:03 69° E 20:12:04 10° SSE
ALOS 3.8 20:03:39 10° SSW 20:07:58 38° W 20:12:19 10° NNW
Cosmos 1300 Rocket 4.0 20:04:45 10° SSE 20:08:42 37° E 20:12:41 10° NNE
Okean 1 Rocket 4.1 20:06:28 10° SE 20:10:00 25° E 20:13:34 10° NE
MINOTAUR R/B 4.4 20:07:54 10° NNW 20:10:39 74° WSW 20:13:22 10° SSE
Tiangong 1 2.9 20:09:19 10° NNW 20:11:23 19° NNE 20:13:22 10° ENE
Cosmos 2322 4.5 20:07:24 10° SSE 20:12:09 29° ESE 20:16:55 10° NE
Cosmos 2360 Rocket 2.5 20:13:18 10° S 20:18:32 42° ESE 20:23:48 10° NE
Lacrosse 5 2.3 20:17:37 10° SW 20:22:39 65° NW 20:27:41 10° NNE
COSMOS 2428 4.0 20:22:47 17° ESE 20:24:21 19° E 20:28:13 10° ENE
Cosmos 1536 2.8 20:24:07 10° S 20:28:08 65° E 20:32:09 10° NNE
ATLAS 2AS CENTAUR R/B 3.0 20:20:38 10° SSW 20:28:09 89° ESE 20:36:16 10° NNE
Helios 1A 4.4 20:27:55 19° E 20:28:59 21° ENE 20:32:12 10° NNE
Meteor 1-19 Rocket 4.2 20:23:42 10° N 20:29:34 82° E 20:35:19 10° S
Cosmos 1939 Rocket 3.5 20:28:40 23° ESE 20:30:28 34° ENE 20:34:03 10° N
Cosmos 1110 Rocket 4.1 20:25:40 10° S 20:30:35 48° ESE 20:35:32 10° NNE
Lacrosse 5 rocket 2.6 20:28:06 10° WNW 20:31:28 33° SW 20:34:57 10° S
Resurs 01 Rocket 1.6 20:27:04 10° SSE 20:31:30 87° WSW 20:35:58 10° NNW
CZ-2D R/B 3.8 20:32:25 10° S 20:36:13 58° W 20:40:01 10° NNW
Meteor 1-5 Rocket 4.0 20:31:29 10° S 20:36:43 60° E 20:41:55 10° NNE
Cosmos 2266 Rocket 3.8 20:31:27 10° S 20:37:26 69° E 20:43:25 10° NNE
S3M 4.1 20:32:33 10° N 20:38:52 86° W 20:45:14 10° S
Cosmos 1553 Rocket 4.1 20:33:12 10° N 20:39:19 77° W 20:45:20 10° S
GPS 2-05 Rocket1 2.6 20:36:22 10° WNW 20:39:47 86° N 20:40:51 41° E
Abrixas 1.9 20:38:07 10° SW 20:40:41 70° SE 20:40:45 69° ESE
Cosmos 1331 Rocket 4.0 20:37:32 10° S 20:42:33 55° ESE 20:47:38 10° NNE
SeaSat 1 2.4 20:41:52 10° NNE 20:46:49 89° WNW 20:51:44 10° SSW
Cosmos 1850 Rocket 4.0 20:41:43 10° NNW 20:47:03 88° ENE 20:50:48 20° SSE
Cosmos 1536 Rocket 4.0 20:46:28 10° NNW 20:50:44 61° W 20:55:00 10° S
Meteor 2-4 Rocket 3.7 20:46:33 10° N 20:52:12 90° S 20:57:17 14° S
Cosmos 2315 Rocket 4.3 20:47:59 10° N 20:53:57 46° E 20:56:32 31° SE
ASTRO E2 4.0 21:02:22 10° SW 21:04:48 27° SSW 21:04:48 27° SSW
YAOGAN 6 2.4 21:07:51 74° NE 21:07:51 74° NE 21:11:12 10° N
Cosmos 1932 4.4 21:02:07 10° NNW 21:08:35 71° ENE 21:10:55 40° SE
ARGOS 4.1 21:12:44 30° ENE 21:12:44 30° ENE 21:17:09 10° N
Helios 1B rocket 2.3 21:10:30 10° NNE 21:14:36 88° WNW 21:15:35 51° SSW
Cosmos 1818 3.4 21:12:07 10° SSW 21:17:27 66° ESE 21:22:50 10° NE
Delta 2 Rocket 3.7 21:16:48 10° W 21:20:48 62° N 21:21:18 57° NNE
FALCON 9 R/B 4.0 21:15:52 10° SSW 21:27:23 21° E 21:34:53 10° ENE
ERS-1 Rocket 3.1 21:26:50 56° ENE 21:26:50 56° ENE 21:31:34 10° N
Cosmos 2263 Rocket 2.9 21:23:40 10° NNW 21:29:09 50° WSW 21:31:34 30° SSW
Atlas Centaur 2 3.1 21:21:18 10° W 21:29:11 49° SSW 21:30:53 42° SSE
USA 238 DEB 4.0 21:23:21 10° NNW 21:30:17 53° NE 21:31:39 46° E
USA 238 4.0 21:23:27 10° NNW 21:30:23 52° NE 21:31:45 46° E
Cosmos 2278 Rocket 4.3 21:32:33 10° NNE 21:34:14 12° NE 21:34:14 12° NE
Cosmos 1844 Rocket 3.6 21:30:37 10° N 21:35:08 33° NE 21:35:08 33° NE
MetOp-B 4.2 21:39:59 63° NE 21:39:59 63° NE 21:44:55 10° N
Okean 2 4.1 21:36:01 10° NNW 21:39:21 52° NW 21:39:21 52° NW
Cosmos 1238 Rocket 3.8 21:34:52 10° N 21:41:27 67° E 21:41:34 67° E
ATLAS 3B R/B 2.4 21:35:30 10° NNW 21:42:09 72° ENE 21:42:49 67° E
Cosmos 2219 Rocket 3.3 21:49:03 31° NE 21:49:03 31° NE 21:52:01 10° NNE
Tiangong 1 4.5 21:44:16 10° WNW 21:44:21 11° WNW 21:44:21 11° WNW
Meteosat 1 Rocket2 4.1 21:44:12 10° WSW 21:49:01 56° SSW 21:49:01 56° SSW
Cosmos 1025 Rocket 4.2 21:46:54 10° NNW 21:50:44 38° W 21:50:44 38° W
Intelsat 5-1 Rocket 4.1 21:36:49 10° W 21:55:54 51° SSW 21:57:02 49° S
H-2A R/B 3.2 21:58:36 33° NNE 21:58:36 33° NNE 22:01:32 10° N
SPOT 5 4.1 22:01:36 35° N 22:01:36 35° N 22:04:18 10° N
Cosmos 2360 Rocket 4.5 21:58:19 10° WSW 22:02:39 22° WNW 22:07:00 10° N
COSMOS 2428 3.5 22:04:26 20° SW 22:08:10 48° WNW 22:13:41 10° N
Aureole 3 Rocket 4.1 22:03:36 10° N 22:11:02 75° W 22:11:02 75° W
Cosmos 2333 Rocket 3.7 22:24:07 28° NNE 22:24:07 28° NNE 22:26:43 10° NNE
NOSS 3-4 (A) 4.1 22:31:03 53° NNW 22:31:03 53° NNW 22:36:18 10° NNE
NOSS 3-4 (C) 4.1 22:31:18 51° NNW 22:31:18 51° NNW 22:36:25 10° NNE
CENTAUR R/B 4.4 22:23:54 10° N 22:30:18 26° NE 22:30:40 25° NE
Cosmos 2237 Rocket 4.3 22:39:08 18° NNE 22:39:08 18° NNE 22:40:26 10° NNE
Terra 4.2 22:39:11 17° N 22:39:11 17° N 22:40:22 10° N
Cosmos 2278 Rocket 4.2 23:14:00 10° NNW 23:16:04 23° NNW 23:16:04 23° NNW
